Date String (YYYY-MM-DD hh:mm:ss) UTC,Instrument flags,absolute air pressure of the measurement (hPa),sample flow rate (lpm),inlet stack bypass flow (lpm),air temperature of the measurement (°C),ambient temperature measured by the external sensor (°C),aerosol sample conditioner tube jacket temperature (°C),OPC LED temperature (°C),internal box temperature (°C),relative humidity of the measurement (%),span deviation,mass concentration of particles derived from Lorenz-Mie calculation of OPC scattering (μg/m³),mass concentration of particles derived from Lorenz-Mie calculation of OPC scattering (μg/m³),mass concentration of particles derived from Lorenz-Mie calculation of OPC scattering (μg/m³)
DateTimeUTC,F1_M11,P_M11,Q1_M11,Q2_M11,T1_M11,T2_M11,T3_M11,T4_M11,T5_M11,U1_M11,ZSPAN_M11,X0_M11,X2_M11,X1_M11
2023-07-06 22:00:00,SystemResetWarning,0831.7,5.01,000.00,031.2,027.3,000.0,039.3,031.3,34.3,-001.8,0014.63,0010.28,0009.71
2023-07-06 22:01:00,SystemResetWarning,0832.1,5.01,000.00,031.2,027.6,000.0,039.3,031.4,34.3,-001.7,0014.61,0010.32,0009.76
2023-07-06 22:02:00,SystemResetWarning,0832.1,5.00,000.00,031.2,027.8,000.0,039.4,031.5,34.2,-001.9,0014.63,0010.37,0009.81
2023-07-06 22:03:00,SystemResetWarning,0832.3,4.99,000.00,031.2,028.0,000.0,039.4,031.5,34.0,-002.1,0014.80,0010.49,0009.90
2023-07-06 22:04:00,SystemResetWarning,0831.8,4.99,000.00,031.2,028.2,000.0,039.4,031.6,34.1,-001.9,0014.88,0010.54,0009.94
2023-07-06 22:05:00,SystemResetWarning,0831.7,4.99,000.00,031.2,028.3,000.0,039.4,031.6,34.8,-001.9,0014.94,0010.57,0009.95
2023-07-06 22:06:00,SystemResetWarning,0831.7,5.04,000.00,031.3,027.8,000.0,039.3,031.7,34.8,-001.6,0015.46,0010.58,0009.98
2023-07-06 22:07:00,SystemResetWarning,0831.6,4.94,000.00,031.3,026.0,000.0,039.2,031.5,34.7,-001.6,0015.88,0010.62,0010.00
2023-07-06 22:08:00,SystemResetWarning,0831.6,5.06,000.00,031.3,025.1,000.0,039.0,031.3,34.9,-001.8,0015.64,0010.64,0010.03
2023-07-06 22:09:00,SystemResetWarning,0831.6,4.96,000.00,031.3,025.1,000.0,039.0,031.1,34.7,-001.7,0015.48,0010.64,0010.05
2023-07-06 22:10:00,SystemResetWarning,0831.5,5.00,000.00,031.1,025.4,000.0,039.1,031.0,35.0,-001.8,0015.74,0010.62,0010.05
2023-07-06 22:11:00,SystemResetWarning,0831.5,5.03,000.00,031.2,025.9,000.0,039.1,031.1,34.9,-001.8,0015.79,0010.65,0010.06
2023-07-06 22:12:00,SystemResetWarning,0831.5,4.96,000.00,031.3,026.4,000.0,039.1,031.2,35.0,-001.7,0015.79,0010.65,0010.06
2023-07-06 22:13:00,SystemResetWarning,0831.5,5.05,000.00,031.5,026.8,000.0,039.2,031.4,34.9,-001.8,0015.93,0010.68,0010.09
2023-07-06 22:14:00,SystemResetWarning,0831.4,4.96,000.00,031.6,027.1,000.0,039.2,031.4,34.4,-001.5,0015.95,0010.68,0010.10
2023-07-06 22:15:00,SystemResetWarning,0831.4,5.03,000.00,031.7,027.4,000.0,039.3,031.5,33.8,-001.5,0016.02,0010.70,0010.12
2023-07-06 22:16:00,SystemResetWarning,0831.4,4.98,000.00,031.7,027.7,000.0,039.3,031.5,33.7,-001.6,0015.93,0010.65,0010.11
2023-07-06 22:17:00,SystemResetWarning,0831.4,5.01,000.00,031.7,027.9,000.0,039.4,031.6,34.1,-001.7,0015.50,0010.57,0010.08
2023-07-06 22:18:00,SystemResetWarning,0831.4,5.01,000.00,031.8,028.1,000.0,039.4,031.7,33.8,-001.5,0015.17,0010.49,0010.01
2023-07-06 22:19:00,SystemResetWarning,0831.4,5.00,000.00,031.8,028.3,000.0,039.5,031.7,33.4,-001.4,0015.51,0010.42,0009.94
2023-07-06 22:20:00,SystemResetWarning,0831.5,4.99,000.00,031.8,028.4,000.0,039.6,031.8,33.5,-001.4,0016.37,0010.38,0009.88
2023-07-06 22:21:00,SystemResetWarning,0831.5,4.98,000.00,031.8,027.7,000.0,039.5,031.8,33.6,-001.2,0016.08,0010.40,0009.87
2023-07-06 22:22:00,SystemResetWarning,0831.5,5.00,000.00,031.8,026.2,000.0,039.4,031.6,33.4,-001.3,0016.06,0010.37,0009.85
2023-07-06 22:23:00,SystemResetWarning,0831.6,5.01,000.00,031.7,025.8,000.0,039.4,031.5,33.5,-001.4,0016.18,0010.41,0009.86
2023-07-06 22:24:00,SystemResetWarning,0831.5,5.02,000.00,031.5,026.0,000.0,039.4,031.3,34.2,-001.4,0016.13,0010.41,0009.85
2023-07-06 22:25:00,SystemResetWarning,0831.5,4.99,000.00,031.4,026.3,000.0,039.4,031.3,34.1,-001.6,0015.97,0010.35,0009.81
2023-07-06 22:26:00,SystemResetWarning,0831.3,4.98,000.00,031.3,026.7,000.0,039.5,031.3,35.0,-001.3,0015.91,0010.29,0009.73
2023-07-06 22:27:00,SystemResetWarning,0831.3,5.03,000.00,031.4,027.1,000.0,039.5,031.4,34.6,-001.4,0015.95,0010.26,0009.71
2023-07-06 22:28:00,SystemResetWarning,0831.2,4.97,000.00,031.5,027.4,000.0,039.5,031.5,34.6,-001.6,0016.00,0010.27,0009.70
2023-07-06 22:29:00,SystemResetWarning,0831.1,5.01,000.00,031.5,027.7,000.0,039.5,031.6,34.9,-001.9,0015.83,0010.31,0009.72
2023-07-06 22:30:00,SystemResetWarning,0831.0,4.99,000.00,031.6,027.9,000.0,039.5,031.7,35.2,-001.8,0015.42,0010.33,0009.75
2023-07-06 22:31:00,SystemResetWarning,0831.0,5.02,000.00,031.8,028.1,000.0,039.5,031.8,35.1,-001.8,0014.48,0010.29,0009.73
2023-07-06 22:32:00,SystemResetWarning,0831.1,5.00,000.00,032.1,028.3,000.0,039.6,032.0,35.2,-002.0,0014.41,0010.27,0009.70
2023-07-06 22:33:00,SystemResetWarning,0831.2,4.99,000.00,032.4,028.0,000.0,039.6,032.1,34.0,-001.9,0014.51,0010.27,0009.69
2023-07-06 22:34:00,SystemResetWarning,0831.3,5.00,000.00,032.6,026.5,000.0,039.5,032.0,33.7,-001.9,0014.47,0010.23,0009.65
2023-07-06 22:35:00,SystemResetWarning,0831.4,5.00,000.00,032.7,025.8,000.0,039.5,031.8,33.8,-001.8,0014.35,0010.16,0009.59
2023-07-06 22:36:00,SystemResetWarning,0831.5,5.01,000.00,032.6,025.9,000.0,039.6,031.5,33.8,-001.8,0014.37,0010.09,0009.51
2023-07-06 22:37:00,SystemResetWarning,0831.6,5.01,000.00,032.5,026.3,000.0,039.7,031.5,34.1,-001.7,0014.24,0009.96,0009.39
2023-07-06 22:38:00,SystemResetWarning,0831.7,5.00,000.00,032.4,026.7,000.0,039.8,031.5,34.2,-001.5,0014.01,0009.83,0009.26
2023-07-06 22:39:00,SystemResetWarning,0831.7,5.00,000.00,032.4,027.0,000.0,039.9,031.6,34.5,-001.2,0013.84,0009.76,0009.15
2023-07-06 22:40:00,SystemResetWarning,0831.7,5.00,000.00,032.3,027.4,000.0,040.0,031.7,34.3,-001.1,0013.64,0009.62,0009.03
2023-07-06 22:41:00,SystemResetWarning,0831.7,4.99,000.00,032.3,027.7,000.0,040.0,031.7,34.3,-001.3,0013.56,0009.50,0008.91
2023-07-06 22:42:00,SystemResetWarning,0831.7,4.99,000.00,032.3,027.9,000.0,040.0,031.8,34.1,-001.4,0013.53,0009.43,0008.83
2023-07-06 22:43:00,SystemResetWarning,0831.7,5.01,000.00,032.3,028.1,000.0,040.1,031.8,33.7,-001.2,0013.40,0009.33,0008.75
2023-07-06 22:44:00,SystemResetWarning,0831.7,5.00,000.00,032.2,028.3,000.0,040.1,031.9,33.7,-001.2,0013.17,0009.24,0008.68
2023-07-06 22:45:00,SystemResetWarning,0831.7,4.99,000.00,032.2,027.7,000.0,040.0,031.9,34.2,-001.1,0013.43,0009.21,0008.63
2023-07-06 22:46:00,SystemResetWarning,0831.7,4.99,000.00,032.2,025.9,000.0,039.9,031.7,34.7,-000.9,0013.48,0009.20,0008.60
2023-07-06 22:47:00,SystemResetWarning,0831.6,5.05,000.00,032.1,025.0,000.0,039.8,031.5,34.8,-001.0,0013.66,0009.24,0008.66
2023-07-06 22:48:00,SystemResetWarning,0831.6,4.95,000.00,032.0,025.1,000.0,039.7,031.3,34.9,-001.1,0014.23,0009.37,0008.78
2023-07-06 22:49:00,SystemResetWarning,0831.5,5.05,000.00,031.9,025.5,000.0,039.8,031.2,35.4,-001.3,0014.51,0009.54,0008.92
2023-07-06 22:50:00,SystemResetWarning,0831.4,4.97,000.00,032.1,026.0,000.0,039.8,031.4,35.5,-001.1,0014.89,0009.62,0009.03
2023-07-06 22:51:00,SystemResetWarning,0831.5,5.02,000.00,032.3,026.4,000.0,039.8,031.6,34.9,-001.1,0014.96,0009.71,0009.13
2023-07-06 22:52:00,SystemResetWarning,0831.4,4.98,000.00,032.6,026.8,000.0,039.8,031.8,33.2,-001.1,0015.05,0009.78,0009.21
2023-07-06 22:53:00,SystemResetWarning,0831.4,4.99,000.00,032.7,027.2,000.0,039.9,031.8,33.3,-001.0,0016.04,0009.88,0009.28
2023-07-06 22:54:00,SystemResetWarning,0831.4,5.01,000.00,032.8,027.5,000.0,040.0,031.9,31.9,-000.9,0015.99,0009.90,0009.29
2023-07-06 22:55:00,SystemResetWarning,0831.3,4.99,000.00,032.8,027.8,000.0,040.1,031.9,31.1,-000.9,0016.05,0009.86,0009.24
2023-07-06 22:56:00,SystemResetWarning,0831.3,4.99,000.00,032.8,028.0,000.0,040.2,031.9,31.5,-000.8,0015.65,0009.73,0009.15
2023-07-06 22:57:00,SystemResetWarning,0831.3,5.00,000.00,032.8,028.2,000.0,040.2,032.0,30.8,-000.8,0015.39,0009.61,0009.03
2023-07-06 22:58:00,SystemResetWarning,0831.3,5.01,000.00,032.8,028.3,000.0,040.3,032.0,31.0,-000.7,0015.24,0009.46,0008.88
2023-07-06 22:59:00,SystemResetWarning,0831.2,4.99,000.00,032.8,028.5,000.0,040.4,032.1,30.5,-000.6,0014.31,0009.30,0008.71
